User: anonymous   Login
Location: Unspecified
(0.0000°N, 0.0000°E)
Time: 11:02:54
(UTC+00:00)
Language:

DICE 1 - Orbit

View from above orbital plane
View from above orbital plane
View from above satellite
View from above satellite

Ground track
Ground track

The orbit data is extracted from the following two-line orbital elements,

1 37851U 11061B   17352.10735954  .00002612  00000-0  14536-3 0  9998
2 37851 101.7360 312.2380 0186911 273.9410  84.0451 15.01914093334145
Epoch (UTC): 18 December 2017 02:34:35
Eccentricity: 0.0186911
inclination: 101.7360°
perigee height: 431 km
apogee height: 690 km
right ascension of ascending node: 312.2380°
argument of perigee: 273.9410°
revolutions per day: 15.01914093
mean anomaly at epoch: 84.0451°
orbit number at epoch: 33414

The dashed part of the orbit path shows where the satellite is in the earth's shadow,  

DLR